Printer-friendly version

IAU Minor Planet Center

Minor Planet Center

MPEC 2006-W87 : 2006 VV2

The following Minor Planet Electronic Circular may be linked-to from your own Web pages, but must not otherwise be redistributed electronically.


Read MPEC 2006-W86 Read MPEC 2006-W88


M.P.E.C. 2006-W87                                Issued 2006 Nov. 26, 02:29 UT

     The Minor Planet Electronic Circulars contain information on unusual
         minor planets and routine data on comets.  They are published
   on behalf of Commission 20 of the International Astronomical Union by the
          Minor Planet Center, Smithsonian Astrophysical Observatory,
                          Cambridge, MA 02138, U.S.A.

             Prepared using the Tamkin Foundation Computer Network

                              MPC@CFA.HARVARD.EDU
          URL http://cfa-www.harvard.edu/iau/mpc.html  ISSN 1523-6714

                                   2006 VV2

                           Revision to MPEC 2006-V47

Additional Observations:
     K06V02V  C2002 10 04.36602 01 06 21.39 +11 53 05.3          19.7 R EW087644
     K06V02V  C2002 10 04.37892 01 06 20.32 +11 53 04.4          19.8 R EW087644
     K06V02V  C2002 10 04.39321 01 06 19.10 +11 53 04.0          19.9 R EW087644
     K06V02V  C2002 10 28.10110 00 32 25.67 +11 05 54.3          20.0 R EW087644
     K06V02V  C2002 10 30.09211 00 29 44.23 +11 01 01.4          20.0 R EW087644
     K06V02V  C2002 10 30.11310 00 29 42.53 +11 00 57.8          20.0 R EW087644
     K06V02V  C2002 10 30.13524 00 29 40.75 +11 00 54.5          19.6 R EW087644
     K06V02V  C2006 11 25.22844 02 06 54.19 +61 49 55.7          17.2 R EW087H45
     K06V02V  C2006 11 25.22948 02 06 53.82 +61 49 56.5          17.5 R EW087H45
     K06V02V  C2006 11 25.23040 02 06 53.59 +61 49 57.2          17.4 R EW087H45
     K06V02V  C2006 11 25.23121 02 06 53.29 +61 49 57.9          17.5 R EW087H45
     K06V02V  C2006 11 25.23300 02 06 52.74 +61 49 59.4          17.6 R EW087H45
     K06V02V  C2006 11 25.23391 02 06 52.46 +61 50 00.1          17.5 R EW087H45

Observer details:
644 Palomar Mountain/NEAT.  Observers E. F. Helin, S. Pravdo, K. Lawrence,
    K. Kuluhiwa, M. Hicks.  Measurer R. Matson.  1.2-m Schmidt + CCD.
H45 Petit Jean Mountain South.  Observer P. C. Sherrod.  Measurers
    P. C. Sherrod, D. A. Birmingham.  0.51-m f/4.5 Ritchey-Chretien + CCD.

Orbital elements:
2006 VV2                                            PHA, Earth MOID = 0.0164 AU
Epoch 2006 Sept. 22.0 TT = JDT 2454000.5                MPC
M 316.27864              (2000.0)            P               Q
n   0.26716347     Peri.  144.83974     -0.89710782     -0.43623053
a   2.3875437      Node    10.05663     +0.25378551     -0.63850509
e   0.6024495      Incl.   23.63364     +0.36164966     -0.63404588
P   3.69           H   16.6           G   0.15           U   3
Residuals in seconds of arc
021004 644  0.0   0.3-    061112 300  0.4+  0.2-    061118 H45  0.1-  0.0
021004 644  0.1+  0.3-    061112 300  0.1+  0.0     061118 H45  0.0   0.1-
021004 644  0.3-  0.2+    061112 300  0.2+  0.0     061118 H45  0.1+  0.1-
021028 644  0.0   0.5+    061112 130  0.0   0.7-    061118 H45  0.0   0.0
021030 644  0.1-  0.4+    061112 130  0.0   0.3-    061118 H45  0.1+  0.0
021030 644  0.0   0.2-    061112 130  0.8-  0.7-    061118 H45  0.1+  0.1+
021030 644  0.3+  0.3-    061113 850  1.2+  0.1+    061119 H45  0.1-  0.2-
061111 704  1.2-  1.7+    061113 850  0.3+  0.1+    061119 H45  0.1+  0.0
061111 704  1.4-  1.4+    061113 850  0.6-  0.4+    061119 H45  0.2+  0.0
061111 704  1.0-  0.9+    061113 673  0.2+  0.2-    061119 H45  0.0   0.1-
061111 704  1.0-  1.3+    061113 673  0.2+  0.2-    061119 H45  0.1+  0.2-
061111 704 (2.7-  0.2-)   061113 673  0.1+  0.2-    061119 H45  0.1-  0.2-
061111 204  0.1+  0.3-    061113 673  0.2+  0.1-    061119 H45  0.0   0.1-
061111 204  0.2+  0.4-    061114 704  0.7-  1.1+    061119 H45  0.2-  0.0
061111 204  0.2+  0.3-    061114 704  1.0+  0.0     061119 H45  0.1+  0.0
061111 176  0.0   0.1-    061114 704  0.1-  0.5+    061119 H45  0.1+  0.0
061111 176  0.2+  0.1-    061116 J95  0.1+  0.1-    061120 H45  0.0   0.1-
061111 176  0.2+  0.4-    061116 J95  0.2+  0.0     061120 H45  0.2+  0.1+
061111 176  0.0   0.5-    061116 J95  0.1-  0.1+    061120 H45  0.1-  0.3-
061111 176  0.4+  0.4-    061117 176  0.0   0.0     061120 H45  0.1-  0.0
061112 939  0.2+  0.4-    061117 176  0.2+  0.3-    061120 H45  0.2+  0.2-
061112 939  0.7+  0.0     061117 176  0.3+  0.2-    061120 H45  0.0   0.3+
061112 H36  1.8+  1.4-    061117 176  0.2+  0.3-    061122 H45  0.2+  0.1-
061112 H36  0.7-  0.2+    061117 176  0.2+  0.0     061122 H45  0.0   0.0
061112 703  0.2+  0.2-    061118 H98  0.6+  0.6+    061122 H45  0.1-  0.1+
061112 703  0.2+  0.1+    061118 H98  0.2+  0.2-    061122 H45  0.1+  0.2-
061112 854  0.2+  0.8-    061118 H98  0.4-  0.3-    061122 H45  0.0   0.1-
061112 854  0.1-  0.0     061118 G88  0.6-  0.6+    061122 H45  0.1+  0.0
061112 854  0.2+  0.5-    061118 G88  0.0   0.3-    061122 H45  0.0   0.0
061112 D35  0.9-  0.6+    061118 G88  0.1-  0.4+    061122 H45  0.0   0.1+
061112 D35  0.8-  0.5+    061118 H45  0.1+  0.0     061123 151  0.7-  0.3+
061112 D35  0.9-  0.5+    061118 H45  0.1+  0.2-    061123 151  0.7-  0.3+
061112 300  0.5+  0.1-    061118 H45  0.0   0.1+    061123 151  0.6-  0.3+

Ephemeris:
2006 VV2                 a,e,i = 2.39, 0.60, 24                  q = 0.9492
Date    TT    R. A. (2000) Decl.     Delta      r     Elong.  Phase     V
2006 11 21    02 27.20   +60 41.3    0.722    1.593   136.9    25.1    18.1
2006 12 01    01 37.27   +62 51.8    0.673    1.509   129.9    30.1    17.9
2006 12 11    00 47.04   +63 14.7    0.640    1.425   121.1    36.3    17.9
2006 12 21    00 06.98   +62 22.7    0.616    1.342   112.0    42.8    17.8
2006 12 31    23 40.50   +61 09.6    0.595    1.262   103.4    49.3    17.8
2007 01 10    23 25.30   +60 15.1    0.570    1.185    95.7    55.7    17.8
2007 01 20    23 18.08   +59 58.0    0.537    1.114    89.2    62.0    17.7
2007 01 30    23 15.99   +60 24.7    0.493    1.052    83.7    68.5    17.6
2007 02 09    23 16.72   +61 31.8    0.436    1.002    79.4    75.3    17.4
2007 02 19    23 18.90   +63 13.3    0.366    0.967    76.0    82.5    17.2
2007 03 01    23 21.78   +65 28.5    0.285    0.950    73.6    89.7    16.9
2007 03 11    23 26.38   +68 36.0    0.196    0.953    72.6    96.1    16.4
2007 03 21    23 47.35   +75 13.9    0.102    0.975    75.3    98.9    15.2
2007 03 31    10 28.12   +32 37.3    0.0228   1.014   132.6    46.5    10.2
2007 04 10    11 02.67   -49 25.1    0.0985   1.068   130.2    45.8    13.5
2007 04 20    11 14.16   -55 07.9    0.196    1.132   126.7    45.4    15.1
2007 04 30    11 26.38   -56 07.2    0.296    1.205   126.1    42.5    16.0
2007 05 10    11 41.03   -55 48.8    0.398    1.283   125.7    39.7    16.7
2007 05 20    11 58.11   -54 58.3    0.503    1.364   125.0    37.4    17.3
2007 05 30    12 17.24   -53 55.8    0.614    1.448   123.7    35.6    17.8
2007 06 09    12 37.76   -52 50.7    0.732    1.532   121.7    34.3    18.3
2007 06 19    12 59.25   -51 47.6    0.856    1.616   119.1    33.4    18.7
2007 06 29    13 21.40   -50 49.8    0.988    1.699   115.9    32.6    19.1
2007 07 09    13 43.89   -49 58.0    1.128    1.781   112.2    31.9    19.5
2007 07 19    14 06.59   -49 12.2    1.276    1.862   108.1    31.2    19.8
2007 07 29    14 29.41   -48 32.0    1.430    1.941   103.8    30.5    20.1
2007 08 08    14 52.22   -47 56.1    1.591    2.019    99.2    29.7    20.4
2007 08 18    15 15.00   -47 23.5    1.758    2.095    94.4    28.8    20.7
2007 08 28    15 37.72   -46 53.1    1.929    2.169    89.4    27.8    20.9
2007 09 07    16 00.31   -46 23.4    2.103    2.241    84.3    26.6    21.2
2007 09 17    16 22.76   -45 53.4    2.279    2.311    79.1    25.3    21.4
2007 09 27    16 45.03   -45 22.3    2.455    2.379    73.8    23.9    21.6
2007 10 07    17 07.06   -44 49.2    2.630    2.446    68.4    22.3    21.7
2007 10 17    17 28.83   -44 13.4    2.801    2.510    63.0    20.7    21.9

Gareth V. Williams           (C) Copyright 2006 MPC           M.P.E.C. 2006-W87

Read MPEC 2006-W86 Read MPEC 2006-W88


Our Web policy. Index to the CBAT/MPC/ICQ pages.


Valid HTML 4.01!